sat.trackr.live / text

‹ back to catalog

STARLINK-2707

NORAD 48669 · 2021-044AH

PAYLOAD ACTIVE UNKNOWN

§ Identity

Operator
Country
US
Launch date
2021-05-26
Launch site
AFETR
Launch vehicle
Mass (kg)
RCS (m²)

Purposes: comms

External: N2YO · Heavens-Above · Gunter

§ Orbital elements

Epoch: 2026-09-12T04:21:41.281056Z

Period
94.01 min
Inclination
53.1621°
Eccentricity
0.0001297
Mean motion
15.31695739 rev/d
Perigee alt
469.9 km
Apogee alt
471.6 km
Semi-major
6,848.9 km
B*
7.7588e-5
RAAN
316.1975°
Arg perigee
80.8302°
Mean anomaly
279.2846°
Rev number
29,253

§ Raw data

STARLINK-27071 48669U 21044AH  26255.18172779  .00002043  00000+0  77588-4 0  99932 48669  53.1621 316.1975 0001297  80.8302 279.2846 15.31695739292533

JSON: /api/v1/satellites/48669 · /tle

For live sub-satellite position, see the globe view (requires WebGL).

§ Visibility from observer

Set your observer location to see the next 7 days of passes ≥ 10°. The values pass through the URL so the page stays shareable.

No JS? Fill the form by hand. The geolocation button needs JavaScript.